Regional Weather Roundup
Issued by NWS

Home | Current Version | Previous Version | Text Only | Print | Product List | Glossary Off
Versions: 1 2 3 4 5 6 7 8 9 10 11 12 13 14 15 16 17 18 19 20 21 22 23 24 25 26 27 28 29 30 31 32 33 34 35 36 37 38 39 40 41 42 43 44 45 46 47 48 49 50

000
ASUS43 KLMK 291310
RWRKY
KENTUCKY REGIONAL WEATHER ROUNDUP
NATIONAL WEATHER SERVICE LOUISVILLE KY
900 AM EDT SAT AUG 29 2015

NOTE "FAIR" INDICATES FEW OR NO CLOUDS BELOW 12,000 FEET
WITH NO SIGNIFICANT WEATHER AND/OR OBSTRUCTIONS TO VISIBILITY.

KYZ001>023-026-027-061>063-070>075-291400-
WESTERN AND SOUTH CENTRAL KENTUCKY

CITY           SKY/WX    TMP DP  RH WIND       PRES   REMARKS
PADUCAH        CLOUDY    73  67  81 S6        30.07R
HENDERSON      CLOUDY    72  64  78 S5        30.08S
OWENSBORO      MOSUNNY   72  68  87 S6        30.11S
HOPKINSVILLE   SUNNY     73  67  81 SE6       30.11S
BOWLING GREEN  MOSUNNY   71  66  84 NE3       30.14S
GLASGOW        MOSUNNY   72  65  80 CALM      30.15S
$$

KYZ024-025-028>034-038-045-046-053-291400-
NORTH CENTRAL KENTUCKY

CITY           SKY/WX    TMP DP  RH WIND       PRES   REMARKS
LOUISVILLE/SDF PTSUNNY   72  65  78 SE5       30.13S
LOUISVILLE/LOU CLOUDY    73  65  75 S6        30.15R
FORT KNOX      MOSUNNY   72  66  82 S7        30.13S
$$

KYZ035>037-039>044-047>052-055>060-089>105-291400-
NORTHEAST KENTUCKY

CITY           SKY/WX    TMP DP  RH WIND       PRES   REMARKS
LEXINGTON      MOSUNNY   71  65  81 S7        30.18R
COVINGTON      MOSUNNY   71  64  78 S9        30.15R
FRANKFORT      SUNNY     71  64  78 S8        30.16R
$$

KYZ054-064>069-076>088-106>120-291400-
SOUTHEAST KENTUCKY

CITY           SKY/WX    TMP DP  RH WIND       PRES   REMARKS
JACKSON        MOSUNNY   69  61  75 CALM      30.22R
LONDON         MOSUNNY   68  62  81 CALM      30.21S
SOMERSET       PTSUNNY   66  64  94 CALM      30.21S
MIDDLESBORO    SUNNY     64  62  93 CALM      30.24R
MONTICELLO     SUNNY     71  68  90 CALM      30.22R
$$



USA.gov is the U.S. government's official web portal to all federal, state and local government web resources and services.